Home   Weather   Kleppestø   Past weeks

Flag for Norway Past Weather in Kleppestø, Norway — Yesterday and Last 2 Weeks

Now
54 °F

Cool.


Feels Like: 52 °F
Forecast: 52 / 58 °F
Wind: 7 mph from South

Location: Bergen / Florida

Current Time: Sep 28, 2016 at 3:46:12 AM

Latest Report: Sep 28, 2016 at 3:00 AM


Visibility: N/A

Pressure: 29.50 "Hg

Humidity: 82%

Dew Point: 49 °F

Location of KleppestøLocation

Past Weather in Kleppestø — Graph

°F

Kleppestø Temperature Yesterday

Maximum temperature yesterday: 57 °F (at 1:00 PM)
Minimum temperature yesterday: 51 °F (at 3:00 AM)
Average temperature yesterday: 54 °F

High & Low Weather Summary for the Past Weeks

 TemperatureHumidityPressure
High81 °F (Sep 16, 2:00 PM)92% (Sep 15, 9:00 AM)30.23 "Hg (Sep 15, 9:00 AM)
Low51 °F (Sep 27, 3:00 AM)36% (Sep 16, 2:00 PM)29.54 "Hg (Sep 28, 2:00 AM)
Average61 °F73%30.05 "Hg
* Reported Sep 13 2:00 AM — Sep 28 2:00 AM, Kleppestø, Weather by CustomWeather, © 2016

Note: Actual official high and low records may vary slightly from our data, if they occured in-between our weather recording intervals... More about our weather records

Advertising

Kleppestø Weather History for the Previous 24 Hours

Scroll right to see more
 ConditionsComfort  
Time TempWeatherWind HumidityBarometerVisibility
2:00 AM
Wed, Sep 28
55 °FCool.7 mph82%29.54 "HgN/A
1:00 AM55 °FCool.7 mph81%29.57 "HgN/A
12:00 AM55 °FCool.9 mph79%29.59 "HgN/A
11:00 PM
Tue, Sep 27
54 °FRain. Overcast.8 mph81%29.62 "Hg4 mi
10:00 PM55 °FCool.8 mph77%29.66 "HgN/A
9:00 PM55 °FCool.6 mph76%29.67 "HgN/A
8:00 PM55 °FOvercast.3 mph79%29.70 "Hg16 mi
7:00 PM56 °FCool.2 mph83%29.66 "HgN/A
6:00 PM55 °FCool.9 mph85%29.60 "HgN/A
5:00 PM55 °FRain. Overcast.13 mph81%29.64 "Hg6 mi
2:00 PM57 °FLight rain. Overcast.8 mph82%29.86 "Hg6 mi
1:00 PM57 °FCool.7 mph78%29.90 "HgN/A
12:00 PM56 °FCool.8 mph79%29.94 "HgN/A
11:00 AM55 °FLight rain. Overcast.7 mph79%29.97 "Hg6 mi
8:00 AM53 °FOvercast.7 mph83%30.06 "Hg5 mi
7:00 AM53 °FCool.5 mph84%30.08 "HgN/A
6:00 AM53 °FCool.5 mph85%30.11 "HgN/A
5:00 AM53 °FCool.3 mph85%30.13 "HgN/A
4:00 AM51 °FCool.2 mph84%30.14 "HgN/A
3:00 AM51 °FCool.3 mph82%30.16 "HgN/A
Weather by CustomWeather, © 2016

See weather overviewHow to use our weather pages